Waarnemingen

Advertentie
Mijn weer
Svenska Hogarna A, Zweden (2498): temperatuur & dauwpunt: 19.02.2018 02:00:00 - 25.02.2018 02:00:00 (CET)Svenska Hogarna A, Zweden (2498): windsnelheid & windstoten: 19.02.2018 02:00:00 - 25.02.2018 02:00:00 (CET)Svenska Hogarna A, Zweden (2498): windrichting: 19.02.2018 02:00:00 - 25.02.2018 02:00:00 (CET)Svenska Hogarna A, Zweden (2498): luchtdruk: 19.02.2018 02:00:00 - 25.02.2018 02:00:00 (CET)Svenska Hogarna A, Zweden (2498): zicht: 19.02.2018 02:00:00 - 25.02.2018 02:00:00 (CET)Svenska Hogarna A, Zweden (2498): neerslag: 19.02.2018 02:00:00 - 25.02.2018 02:00:00 (CET)
Datum & Tijd tt [°C] td [°C] ff [km/u] ff [kn] fx [km/u] fx [kn] dd ppp [hPa] vv [km] rr [mm]
25.02.2018 02:00:00 -7,9 -12,1 24 13 39 21 NNO 1038,4 28 0,0
25.02.2018 01:00:00 -7,4 -11,8 26 14 38 20 NO 1038,4 50 0,0
25.02.2018 00:00:00 -7,7 -11,7 28 15 40 21 NO 1038,5 33 0,0
24.02.2018 23:00:00 -7,3 -10,8 26 14 40 22 NNO 1038,3 50 0,0
24.02.2018 22:00:00 -7,1 -12,0 27 15 38 21 NNO 1038,1 50 0,0
24.02.2018 21:00:00 -7,1 -14,2 30 16 44 24 NNO 1038,0 50 0,0
24.02.2018 20:00:00 -6,6 -13,1 28 15 40 22 NNO 1037,9 50 0,0
24.02.2018 19:00:00 -6,7 -13,6 27 15 39 21 NNO 1037,9 50 0,0
24.02.2018 18:00:00 -6,8 -13,7 26 14 36 20 NNO 1037,9 50 0,0
24.02.2018 17:00:00 -6,7 -13,4 24 13 35 19 N 1038,0 50 0,0
24.02.2018 16:00:00 -6,8 -12,7 21 11 32 18 N 1038,2 50 0,0
24.02.2018 15:00:00 -6,7 -12,4 18 10 32 17 N 1038,3 49 0,0
24.02.2018 14:00:00 -6,7 -12,4 23 12 32 17 NNO 1038,4 50 0,0
24.02.2018 13:00:00 -6,5 -11,4 21 12 33 18 NNO 1038,5 48 0,0
24.02.2018 12:00:00 -7,0 -12,9 23 13 37 20 NNO 1038,8 46 0,0
24.02.2018 11:00:00 -7,0 -12,3 24 13 40 22 NNO 1038,7 38 0,0
24.02.2018 10:00:00 -6,8 -12,7 25 14 40 21 NNO 1038,6 39 0,0
24.02.2018 09:00:00 -6,8 -12,3 24 13 35 19 N 1038,3 49 0,0
24.02.2018 08:00:00 -7,0 -13,0 24 13 35 19 NNO 1038,1 44 0,0
24.02.2018 07:00:00 -6,8 -12,7 22 12 34 18 NNO 1037,8 50 0,0
24.02.2018 06:00:00 -6,4 -10,8 24 13 37 20 NNO 1037,4 47 0,0
24.02.2018 05:00:00 -6,3 -11,2 25 14 36 20 NO 1036,6 50 0,0
24.02.2018 04:00:00 -6,2 -10,8 28 15 38 21 NO 1036,1 50 0,0
24.02.2018 03:00:00 -6,1 -10,0 27 15 36 19 NNO 1035,7 50 0,0
24.02.2018 02:00:00 -5,9 -10,0 26 14 40 21 NO 1035,4 50 0,0
24.02.2018 01:00:00 -5,9 -9,8 30 16 41 22 NO 1034,9 50 0,0
24.02.2018 00:00:00 -5,3 -9,6 28 15 41 22 NNO 1034,2 43 0,0
23.02.2018 23:00:00 -5,4 -9,6 29 16 42 23 NNO 1033,6 50 0,0
23.02.2018 22:00:00 -4,9 -9,3 32 17 45 25 NNO 1033,1 41 0,0
23.02.2018 21:00:00 -4,6 -9,6 32 17 46 25 NNO 1032,5 45 0,0
23.02.2018 20:00:00 -4,6 -10,6 32 17 44 24 NNO 1032,0 46 0,0
23.02.2018 19:00:00 -4,9 -10,3 31 17 43 23 NNO 1031,5 34 0,0
23.02.2018 18:00:00 -4,3 -10,3 28 15 42 23 NNO 1030,9 50 0,0
23.02.2018 17:00:00 -4,3 -11,3 26 14 42 23 NNO 1030,1 50 0,0
23.02.2018 16:00:00 -3,9 -10,1 29 16 44 24 NO 1029,4 50 0,0
23.02.2018 15:00:00 -3,6 -9,8 30 16 43 23 NO 1028,7 38 0,0
23.02.2018 14:00:00 -3,5 -9,5 27 15 45 25 NO 1028,2 43 0,0
23.02.2018 13:00:00 -3,2 -8,6 29 16 39 21 NO 1027,6 45 0,0
23.02.2018 12:00:00 -3,1 -8,6 25 14 35 19 NO 1027,1 14 0,0
23.02.2018 11:00:00 -2,9 -7,8 23 12 32 18 NO 1026,6 45 0,0
23.02.2018 10:00:00 -3,0 -5,8 19 11 29 16 N 1026,3 36 0,0
23.02.2018 09:00:00 -3,4 -7,7 21 11 30 16 NNO 1025,7 50 0,0
23.02.2018 08:00:00 -3,1 -7,6 15 8 29 15 NNO 1025,5 39 0,0
23.02.2018 07:00:00 -3,3 -8,0 17 9 28 15 NNO 1025,3 44 0,0
23.02.2018 06:00:00 -3,5 -7,3 16 9 24 13 NNO 1025,0 36 0,0
23.02.2018 05:00:00 -3,4 -5,0 19 11 26 14 NNO 1025,0 4,4 0,0
23.02.2018 04:00:00 -3,4 -6,4 10 6 18 10 NNW 1025,3 12 0,0
23.02.2018 03:00:00 -3,4 -7,9 8 4 13 7 NNW 1025,7 22 0,0
23.02.2018 02:00:00 -3,6 -7,9 9 5 15 8 WNW 1025,9 37 0,0
23.02.2018 01:00:00 -3,8 -8,1 8 4 16 8 WNW 1026,0 47 0,0
23.02.2018 00:00:00 -3,5 -7,5 11 6 17 9 W 1026,4 44 0,0
22.02.2018 23:00:00 -3,4 -8,1 10 6 24 13 NW 1026,8 50 0,0
22.02.2018 22:00:00 -3,3 -7,4 18 10 29 16 WNW 1027,0 42 0,0
22.02.2018 21:00:00 -2,9 -6,4 23 12 28 15 WNW 1026,9 37 0,0
22.02.2018 20:00:00 -2,7 -4,9 20 11 26 14 WNW 1027,1 8 0,0
22.02.2018 19:00:00 -2,7 -4,6 4 2 13 7 N 1027,4 6 0,0
22.02.2018 18:00:00 -2,9 -5,1 9 5 14 7 NNW 1027,4 30 0,0
22.02.2018 17:00:00 -2,8 -5,3 3 1 5 3 NNW 1027,6 48 0,0
22.02.2018 16:00:00 -2,3 -4,5 4 2 5 3 W 1027,7 45 0,3
22.02.2018 15:00:00 -2,9 -4,2 4 2 18 10 OZO 1028,2 4,7 0,0
22.02.2018 14:00:00 -2,2 -4,4 16 9 23 13 Z 1028,7 40 0,0
22.02.2018 13:00:00 -1,7 -5,0 15 8 33 18 ZZW 1029,3 42 0,2
22.02.2018 12:00:00 -2,4 -4,1 26 14 34 18 ZZW 1029,4 8 0,6
22.02.2018 11:00:00 -2,7 -4,6 22 12 30 16 ZZW 1029,6 26 0,1
22.02.2018 10:00:00 -2,8 -5,0 24 13 31 17 ZZW 1029,7 4,8 0,4
22.02.2018 09:00:00 -3,0 -5,0 12 7 24 13 ZZW 1030,1 41 0,3
22.02.2018 08:00:00 -3,1 -4,1 18 10 23 13 Z 1029,9 4,5 1,0
22.02.2018 07:00:00 -4,2 -5,4 12 6 17 9 WZW 1030,0 0,4 0,1
22.02.2018 06:00:00 -3,2 -6,5 14 8 21 12 ZZW 1029,7 50 0,0
22.02.2018 05:00:00 -2,9 -7,8 3 2 6 3 NNW 1029,8 50 0,0
22.02.2018 04:00:00 -3,2 -7,5 4 2 11 6 NNW 1029,7 38 0,0
22.02.2018 03:00:00 -3,4 -6,7 7 4 11 6 NNW 1029,9 50 0,0
22.02.2018 02:00:00 -3,3 -6,9 2 1 18 10 Z 1029,8 39 0,0
22.02.2018 01:00:00 -2,8 -8,9 12 6 18 10 Z 1029,7 50 0,0
22.02.2018 00:00:00 -3,0 -8,5 10 6 16 9 ZZO 1029,7 50 0,0
21.02.2018 23:00:00 -3,4 -7,7 13 7 20 11 ZO 1029,6 35 0,0
21.02.2018 22:00:00 -3,0 -9,7 7 4 16 9 ZO 1029,5 19 0,0
21.02.2018 21:00:00 -3,3 -10,0 6 3 13 7 ZZW 1029,1 50 0,0
21.02.2018 20:00:00 -3,3 -9,3 8 5 16 9 ZO 1028,7 46 0,0
21.02.2018 19:00:00 -3,4 -9,6 9 5 16 9 ZO 1028,3 48 0,0
21.02.2018 18:00:00 -3,4 -8,8 11 6 19 10 OZO 1028,0 45 0,0
21.02.2018 17:00:00 -3,3 -9,3 7 4 13 7 OZO 1027,6 44 0,0
21.02.2018 16:00:00 -3,4 -9,6 9 5 18 10 ZO 1027,4 50 0,0
21.02.2018 15:00:00 -3,4 -9,2 12 7 21 12 O 1027,4 48 0,0
21.02.2018 14:00:00 -3,0 -8,9 13 7 22 12 OZO 1027,3 29 0,0
21.02.2018 13:00:00 -3,1 -8,2 12 7 23 13 OZO 1027,3 44 0,3
21.02.2018 12:00:00 -3,4 -6,2 18 10 29 16 OZO 1027,3 9 0,2
21.02.2018 11:00:00 -3,7 -5,0 23 13 32 17 O 1027,0 1,5 0,4
21.02.2018 10:00:00 -4,3 -5,7 22 12 29 15 ONO 1026,9 0,5 0,2
21.02.2018 09:00:00 -3,8 -6,6 22 12 28 15 ONO 1026,5 12 0,1
21.02.2018 08:00:00 -4,2 -5,6 16 9 25 13 NO 1026,2 5 0,0
21.02.2018 07:00:00 -4,4 -6,7 10 6 19 10 NNO 1026,3 10 0,0
21.02.2018 06:00:00 -4,4 -8,5 11 6 15 8 NO 1026,4 16 0,0
21.02.2018 05:00:00 -4,5 -9,3 9 5 15 8 NNO 1026,7 35 0,0
21.02.2018 04:00:00 -4,7 -9,5 8 4 14 8 NNO 1026,7 45 0,0
21.02.2018 03:00:00 -4,7 -9,9 6 4 13 7 N 1027,0 39 0,0
21.02.2018 02:00:00 -4,8 -10,4 6 4 16 9 NNO 1027,1 50 0,0
21.02.2018 01:00:00 -4,9 -9,9 10 5 16 9 NNO 1027,4 40 0,0
21.02.2018 00:00:00 -5,0 -10,6 9 5 17 9 NNO 1027,6 38 0,0
20.02.2018 23:00:00 -5,2 -10,6 10 5 16 9 NO 1027,5 35 0,0
20.02.2018 22:00:00 -5,1 -9,9 10 6 20 11 NO 1027,6 50 0,0
20.02.2018 21:00:00 -5,0 -9,6 14 8 21 12 NO 1027,5 36 0,0
20.02.2018 20:00:00 -5,1 -8,7 13 7 22 12 NNO 1027,9 39 0,0
20.02.2018 19:00:00 -5,0 -8,4 13 7 22 12 NNO 1027,7 22 0,0
20.02.2018 18:00:00 -5,2 -8,4 10 5 21 12 NNO 1027,8 10 0,0
20.02.2018 17:00:00 -5,3 -8,5 13 7 21 12 NNO 1027,8 8 0,0
20.02.2018 16:00:00 -5,2 -9,3 14 7 21 12 NNO 1027,9 47 0,0
20.02.2018 15:00:00 -4,8 -9,4 14 7 21 11 NNO 1028,0 41 0,0
20.02.2018 14:00:00 -4,5 -9,9 13 7 22 12 N 1028,2 35 0,0
20.02.2018 13:00:00 -4,0 -8,8 13 7 21 11 N 1028,5 39 0,0
20.02.2018 12:00:00 -4,4 -9,8 15 8 23 12 NNO 1028,5 33 0,0
20.02.2018 11:00:00 -4,8 -10,0 16 9 27 15 NNO 1028,5 41 0,0
20.02.2018 10:00:00 -4,8 -9,4 15 8 25 14 NNO 1028,6 45 0,0
20.02.2018 09:00:00 -4,7 -9,2 17 9 23 13 NO 1028,4 32 0,0
20.02.2018 08:00:00 -4,7 -8,5 14 8 24 13 NO 1028,2 14 0,0
20.02.2018 07:00:00 -4,8 -9,1 10 5 25 13 NO 1028,2 47 0,0
20.02.2018 06:00:00 -4,8 -9,1 16 9 26 14 NNO 1028,1 47 0,0
20.02.2018 05:00:00 -4,6 -8,7 11 6 26 14 NO 1028,1 33 0,0
20.02.2018 04:00:00 -4,4 -8,0 18 10 27 14 NNO 1028,1 15 0,0
20.02.2018 03:00:00 -4,2 -7,5 16 8 26 14 NNO 1028,2 20 0,0
20.02.2018 02:00:00 -4,1 -7,5 15 8 23 13 N 1028,0 21 0,0
20.02.2018 01:00:00 -3,9 -7,0 14 8 24 13 NNO 1028,2 15 0,0
20.02.2018 00:00:00 -4,1 -7,5 13 7 24 13 N 1028,3 18 0,0
19.02.2018 23:00:00 -4,0 -7,4 16 8 27 15 NNO 1028,1 18 0,0
19.02.2018 22:00:00 -4,1 -7,2 15 8 29 16 NNO 1027,9 19 0,0
19.02.2018 21:00:00 -4,4 -7,5 19 10 33 18 NNO 1028,1 17 0,0
19.02.2018 20:00:00 -4,7 -7,3 18 10 34 18 NNO 1028,0 15 0,0
19.02.2018 19:00:00 -5,0 -7,3 16 9 29 15 N 1027,7 15 0,0
19.02.2018 18:00:00 -5,1 -7,4 20 11 31 17 NNO 1027,7 13 0,0
19.02.2018 17:00:00 -4,9 -7,2 17 9 29 16 NNO 1027,5 17 0,0
19.02.2018 16:00:00 -4,3 -6,8 14 8 21 12 NNO 1027,0 16 0,0
19.02.2018 15:00:00 -4,4 -7,0 14 8 29 16 NNO 1026,9 14 0,0
19.02.2018 14:00:00 -4,1 -7,0 13 7 25 13 NNO 1026,6 18 0,0
19.02.2018 13:00:00 -4,0 -7,3 13 7 23 13 NNO 1026,4 20 0,0
19.02.2018 12:00:00 -4,2 -7,1 14 8 25 13 NNO 1026,3 14 0,0
19.02.2018 11:00:00 -4,1 -7,0 20 11 31 17 NO 1026,0 16 0,0
19.02.2018 10:00:00 -3,9 -6,5 25 14 37 20 NO 1025,4 17 0,0
19.02.2018 09:00:00 -3,3 -5,9 28 15 40 22 NO 1025,0 19 0,0
19.02.2018 08:00:00 -3,0 -6,0 29 16 40 22 NO 1024,4 13 0,0
19.02.2018 07:00:00 -2,4 -5,2 27 15 36 19 ONO 1023,8 15 0,0
19.02.2018 06:00:00 -2,0 -4,7 26 14 33 18 ONO 1023,4 19 0,0
19.02.2018 05:00:00 -1,7 -4,5 24 13 32 17 ONO 1022,9 13 0,0
19.02.2018 04:00:00 -1,5 -4,0 23 13 31 17 ONO 1022,9 10 0,0
19.02.2018 03:00:00 -1,5 -3,4 16 8 20 11 ONO 1022,9 5 0,0
19.02.2018 02:00:00 -1,4 -3,1 16 9 22 12 O 1023,1 9 0,0

tt = temperatuur
td = dauwpunt
ff = windsnelheid
fx = windstoten
dd = windrichting
ppp = luchtdruk
vv = zicht
rr = neerslag

Weerstations in de omgeving